Flag for Germany Weather past 2 weeks in Mosbach, Baden-Württemberg, Germany

Now
67 °F

Overcast.


Feels Like: 67 °F
Forecast: 44 / 65 °F
Wind: 5 mph from West

Location: Oehringen

Current Time: Sep 4, 2015 at 6:53:04 PM

Latest Report: Sep 4, 2015 at 6:00 PM


Visibility: 34 mi

Pressure: 29.96 "Hg

Humidity: 38%

Dew point: 40 °F

Location of MosbachLocation

Historic Weather in Mosbach — Graph

°F

Mosbach temperature yesterday

Maximum temperature yesterday: 69 °F (at 4:00 PM)
Minimum temperature yesterday: 57 °F (at 7:00 AM)
Average temperature yesterday: 62 °F

Past Weeks' High & Low Weather Summary

 TemperatureHumidityPressure
High93 °F (Aug 31, 6:00 PM)99% (Aug 21, 8:00 AM)30.29 "Hg (Aug 21, 8:00 AM)
Low48 °F (Sep 4, 7:00 AM)27% (Aug 22, 2:00 PM)29.68 "Hg (Aug 24, 3:00 PM)
Average69 °F65%29.99 "Hg
* Reported Aug 20 5:00 PM — Sep 4 5:00 PM, Mosbach, Weather by CustomWeather, © 2015

Note: Actual official high and low records may vary slightly from our data, if they occured in-between our weather recording intervals... More about our weather records

Advertising

Mosbach weather history for previous 24 hours

 ConditionsComfort  
Time TempWeatherWind HumidityBarometerVisibility
5:00 PM
Fri, Sep 4
65 °FOvercast.6 mph39%29.97 "Hg37 mi
4:00 PM67 °FPassing clouds.7 mph36%29.98 "Hg19 mi
3:00 PM65 °FOvercast.6 mph43%30.01 "Hg34 mi
2:00 PM66 °FOvercast.6 mph45%30.00 "Hg28 mi
1:00 PM63 °FOvercast.6 mph52%30.01 "Hg25 mi
12:00 PM63 °FOvercast.3 mph55%30.02 "Hg25 mi
11:00 AM60 °FOvercast.2 mph62%30.03 "Hg22 mi
10:00 AM57 °FPartly sunny.1 mph68%30.03 "Hg25 mi
9:00 AM52 °FPartly sunny.1 mph82%30.03 "Hg19 mi
8:00 AM49 °FOvercast.No wind87%30.03 "Hg22 mi
7:00 AM48 °FOvercast.2 mph88%30.02 "Hg28 mi
5:00 AM50 °FClear.2 mph86%30.01 "Hg25 mi
4:00 AM52 °FClear.1 mph83%30.01 "Hg25 mi
3:00 AM53 °FClear.1 mph80%30.02 "Hg28 mi
2:00 AM54 °FPassing clouds.1 mph77%30.01 "Hg31 mi
1:00 AM57 °FPassing clouds.2 mph70%30.00 "Hg43 mi
11:00 PM
Thu, Sep 3
61 °FOvercast.3 mph61%29.97 "Hg43 mi
10:00 PM62 °FClear.2 mph59%29.97 "Hg43 mi
9:00 PM64 °FOvercast.2 mph52%29.95 "Hg43 mi
8:00 PM66 °FOvercast.3 mph47%29.93 "Hg43 mi
7:00 PM67 °FOvercast.3 mph43%29.92 "Hg43 mi
6:00 PM68 °FOvercast.5 mph43%29.93 "Hg43 mi
Weather by CustomWeather, © 2015

See weather overviewHow to use our weather pages